Weather History for KAQP - February, 2015

Change the Weather History Date:

Tuesday, February 17, 2015

  Actual Average Record
Temperature  
Mean Temperature 5 °F -  
Max Temperature 12 °F 26 °F 48 °F (2002)
Min Temperature -2 °F 9 °F -16 °F (2001)
Degree Days  
Heating Degree Days 60    
Moisture  
Dew Point -3 °F    
Average Humidity 71    
Maximum Humidity 85    
Minimum Humidity 57    
Precipitation  
Precipitation 0.00 in - - ()
Sea Level Pressure  
Sea Level Pressure 30.07 in    
Wind  
Wind Speed 15 mph (NW)    
Max Wind Speed 25 mph    
Max Gust Speed 31 mph    
Visibility 9 miles    
Events Snow    
Averages and records for this station are not official NWS values.
T = Trace of Precipitation, MM = Missing Value Source: NWS Daily Summary

Daily Weather History Graph

Daily Weather History Graph

Search for Another Location

Airport or City:

Trip Planner

Search our weather history database for the weather conditions in past years. The results will help you decide how hot, cold, wet, or windy it might be!

Date:

Astronomy

Feb. 17, 2015 Rise Set
Actual Time 7:22 AM CST 5:54 PM CST
Civil Twilight 6:52 AM CST 6:24 PM CST
Nautical Twilight 6:17 AM CST 6:58 PM CST
Astronomical Twilight 5:43 AM CST 7:33 PM CST
Moon 6:09 AM CST (2/17) 4:42 PM CST (2/17)
Length of Visible Light 11h 32m
Length of Day
10h 31m
Waning Crescent, 2% of the Moon is Illuminated
Feb 17
Waning Crescent
Feb 18
New
Feb 25
First Quarter
Mar 5
Full
Mar 13
Last Quarter

Hourly Weather History & Observations

Time (CST) Temp. Windchill Dew Point Humidity Pressure Visibility Wind Dir Wind Speed Gust Speed Precip Events Conditions
12:14 AM 10.4 °F 4.0 °F 6.8 °F 85% 30.10 in 7.0 mi WNW 3.5 mph - N/A Snow Light Snow
12:35 AM 12.2 °F -6.7 °F 8.6 °F 85% 30.11 in 3.0 mi North 21.9 mph 29.9 mph N/A Snow Light Snow
12:55 AM 10.4 °F -8.2 °F 3.2 °F 73% 30.11 in 5.0 mi North 19.6 mph 26.5 mph N/A   Haze
1:15 AM 10.4 °F -8.6 °F 3.2 °F 73% 30.11 in 5.0 mi North 20.7 mph 25.3 mph N/A   Haze
1:35 AM 8.6 °F -11.0 °F 3.2 °F 79% 30.11 in 7.0 mi North 20.7 mph 24.2 mph N/A   Overcast
1:54 AM 8.6 °F -10.0 °F 1.4 °F 73% 30.12 in 7.0 mi North 18.4 mph 24.2 mph N/A   Overcast
2:15 AM 6.8 °F -11.8 °F -0.4 °F 72% 30.12 in 7.0 mi North 17.3 mph - N/A   Overcast
2:34 AM 6.8 °F -13.4 °F -0.4 °F 72% 30.12 in 10.0 mi North 20.7 mph - N/A   Overcast
2:54 AM 3.2 °F -15.3 °F -2.2 °F 78% 30.12 in 10.0 mi North 15.0 mph - N/A   Scattered Clouds
3:14 AM 1.4 °F -16.1 °F -2.2 °F 85% 30.12 in 10.0 mi NNW 12.7 mph - N/A   Clear
3:35 AM 1.4 °F -16.1 °F -4.0 °F 78% 30.12 in 10.0 mi NNW 12.7 mph - N/A   Clear
3:54 AM 1.4 °F -16.1 °F -4.0 °F 78% 30.12 in 10.0 mi NNW 12.7 mph - N/A   Clear
4:14 AM 1.4 °F -14.5 °F -4.0 °F 78% 30.12 in 10.0 mi North 10.4 mph - N/A   Clear
4:34 AM -0.4 °F -13.4 °F -5.8 °F 78% 30.12 in 10.0 mi NW 6.9 mph - N/A   Clear
4:54 AM -0.4 °F -13.4 °F -5.8 °F 78% 30.12 in 10.0 mi NW 6.9 mph - N/A   Clear
5:14 AM -0.4 °F -15.7 °F -5.8 °F 78% 30.12 in 10.0 mi NW 9.2 mph - N/A   Clear
5:34 AM -0.4 °F -16.7 °F -5.8 °F 78% 30.12 in 10.0 mi NW 10.4 mph - N/A   Clear
5:54 AM -0.4 °F -15.7 °F -7.6 °F 72% 30.12 in 10.0 mi NNW 9.2 mph - N/A   Clear
6:15 AM -2.2 °F -16.8 °F -7.6 °F 78% 30.13 in 10.0 mi NW 8.1 mph - N/A   Clear
6:34 AM -2.2 °F -18.9 °F -7.6 °F 78% 30.13 in 10.0 mi NW 10.4 mph - N/A   Clear
6:54 AM -2.2 °F -19.9 °F -7.6 °F 78% 30.12 in 10.0 mi NW 11.5 mph - N/A   Clear
7:14 AM -2.2 °F -18.9 °F -7.6 °F 78% 30.13 in 10.0 mi NW 10.4 mph - N/A   Clear
7:34 AM -2.2 °F -19.9 °F -7.6 °F 78% 30.13 in 10.0 mi NW 11.5 mph - N/A   Clear
7:54 AM -0.4 °F -17.6 °F -7.6 °F 72% 30.13 in 10.0 mi NNW 11.5 mph - N/A   Clear
8:14 AM -0.4 °F -14.7 °F -7.6 °F 72% 30.13 in 10.0 mi NW 8.1 mph - N/A   Clear
8:35 AM 1.4 °F -8.3 °F -5.8 °F 72% 30.12 in 10.0 mi WNW 4.6 mph - N/A   Clear
8:54 AM 3.2 °F -9.1 °F -5.8 °F 66% 30.12 in 10.0 mi WNW 6.9 mph - N/A   Clear
9:15 AM 3.2 °F -11.3 °F -4.0 °F 72% 30.12 in 10.0 mi WNW 9.2 mph - N/A   Clear
9:34 AM 5.0 °F -10.8 °F -2.2 °F 72% 30.11 in 10.0 mi NW 11.5 mph - N/A   Clear
9:54 AM 6.8 °F -10.0 °F -2.2 °F 67% 30.11 in 10.0 mi NW 13.8 mph - N/A   Scattered Clouds
10:14 AM 6.8 °F -11.8 °F -0.4 °F 72% 30.10 in 10.0 mi WNW 17.3 mph - N/A   Scattered Clouds
10:34 AM 6.8 °F -11.8 °F -0.4 °F 72% 30.09 in 7.0 mi WNW 17.3 mph 21.9 mph N/A   Scattered Clouds
10:54 AM 8.6 °F -9.5 °F -0.4 °F 67% 30.08 in 10.0 mi WNW 17.3 mph - N/A   Scattered Clouds
11:14 AM 10.4 °F -7.2 °F 1.4 °F 67% 30.08 in 7.0 mi WNW 17.3 mph 21.9 mph N/A   Mostly Cloudy
11:35 AM 8.6 °F -8.9 °F -2.2 °F 62% 30.07 in 10.0 mi WNW 16.1 mph 24.2 mph N/A   Scattered Clouds
11:54 AM 8.6 °F -11.0 °F -0.4 °F 67% 30.07 in 10.0 mi WNW 20.7 mph - N/A   Scattered Clouds
12:14 PM 8.6 °F -11.4 °F -2.2 °F 62% 30.06 in 10.0 mi WNW 21.9 mph 25.3 mph N/A   Scattered Clouds
12:34 PM 8.6 °F -11.0 °F -2.2 °F 62% 30.05 in 10.0 mi NW 20.7 mph - N/A   Scattered Clouds
12:54 PM 8.6 °F -11.9 °F -2.2 °F 62% 30.03 in 10.0 mi NW 23.0 mph - N/A   Clear
1:14 PM 10.4 °F -8.6 °F -2.2 °F 57% 30.03 in 10.0 mi NW 20.7 mph 29.9 mph N/A   Scattered Clouds
1:35 PM 10.4 °F -8.2 °F -0.4 °F 62% 30.02 in 10.0 mi NW 19.6 mph 27.6 mph N/A   Scattered Clouds
1:54 PM 10.4 °F -8.2 °F -0.4 °F 62% 30.01 in 10.0 mi NW 19.6 mph 25.3 mph N/A   Scattered Clouds
2:14 PM 10.4 °F -9.5 °F -0.4 °F 62% 30.01 in 10.0 mi WNW 23.0 mph 31.1 mph N/A   Scattered Clouds
2:34 PM 10.4 °F -8.2 °F -2.2 °F 57% 30.00 in 10.0 mi WNW 19.6 mph - N/A   Scattered Clouds
2:54 PM 10.4 °F -10.3 °F -2.2 °F 57% 30.00 in 10.0 mi WNW 25.3 mph 31.1 mph N/A   Scattered Clouds
3:14 PM 10.4 °F -8.6 °F -0.4 °F 62% 29.99 in 10.0 mi WNW 20.7 mph 27.6 mph N/A   Scattered Clouds
3:35 PM 10.4 °F -9.1 °F -0.4 °F 62% 29.98 in 10.0 mi WNW 21.9 mph 25.3 mph N/A   Scattered Clouds
3:55 PM 10.4 °F -9.1 °F -0.4 °F 62% 29.98 in 7.0 mi WNW 21.9 mph 27.6 mph N/A   Clear
4:15 PM 10.4 °F -9.5 °F 1.4 °F 67% 29.98 in 4.0 mi WNW 23.0 mph 27.6 mph N/A   Haze
4:34 PM 10.4 °F -8.2 °F 3.2 °F 73% 29.98 in 2.5 mi WNW 19.6 mph 27.6 mph N/A Snow Light Snow
4:55 PM 10.4 °F -8.6 °F 3.2 °F 73% 29.98 in 3.0 mi NW 20.7 mph 27.6 mph N/A   Haze
5:14 PM 8.6 °F -12.3 °F 1.4 °F 73% 29.98 in 5.0 mi NW 24.2 mph 29.9 mph N/A   Haze
5:34 PM 8.6 °F -11.0 °F 1.4 °F 73% 29.99 in 2.0 mi NW 20.7 mph 25.3 mph N/A   Haze
5:54 PM 8.6 °F -10.5 °F 1.4 °F 73% 29.99 in 10.0 mi NNW 19.6 mph 24.2 mph N/A   Mostly Cloudy
6:14 PM 6.8 °F -12.9 °F -0.4 °F 72% 30.00 in 7.0 mi NNW 19.6 mph 26.5 mph N/A   Overcast
6:34 PM 5.0 °F -14.7 °F -2.2 °F 72% 30.01 in 7.0 mi NNW 18.4 mph 26.5 mph N/A   Scattered Clouds
6:54 PM 5.0 °F -16.7 °F -0.4 °F 78% 30.02 in 2.0 mi NNW 23.0 mph 26.5 mph N/A Snow Light Snow
7:14 PM 3.2 °F -19.5 °F -4.0 °F 72% 30.03 in 10.0 mi NNW 24.2 mph 28.8 mph N/A   Mostly Cloudy
7:34 PM 3.2 °F -18.6 °F -2.2 °F 78% 30.04 in 5.0 mi North 21.9 mph 27.6 mph N/A   Haze
7:54 PM 1.4 °F -21.9 °F -5.8 °F 72% 30.05 in 10.0 mi NNW 24.2 mph 28.8 mph N/A   Scattered Clouds
8:15 PM 1.4 °F -20.5 °F -7.6 °F 66% 30.05 in 10.0 mi NNW 20.7 mph 27.6 mph N/A   Clear
8:34 PM 1.4 °F -19.4 °F -7.6 °F 66% 30.06 in 10.0 mi NNW 18.4 mph 25.3 mph N/A   Clear
8:54 PM -0.4 °F -21.7 °F -7.6 °F 72% 30.06 in 10.0 mi NW 18.4 mph - N/A   Clear
9:14 PM -0.4 °F -21.7 °F -9.4 °F 66% 30.07 in 10.0 mi NNW 18.4 mph 25.3 mph N/A   Clear
9:34 PM -0.4 °F -21.7 °F -9.4 °F 66% 30.08 in 10.0 mi NW 18.4 mph 24.2 mph N/A   Clear
9:55 PM -0.4 °F -20.5 °F -9.4 °F 66% 30.09 in 10.0 mi NNW 16.1 mph 19.6 mph N/A   Clear
10:14 PM -0.4 °F -19.2 °F -9.4 °F 66% 30.09 in 10.0 mi NNW 13.8 mph - N/A   Clear
10:34 PM -2.2 °F -21.5 °F -9.4 °F 71% 30.10 in 10.0 mi NW 13.8 mph 18.4 mph N/A   Clear
10:55 PM -2.2 °F -22.2 °F -9.4 °F 71% 30.10 in 10.0 mi NW 15.0 mph - N/A   Clear
11:14 PM -2.2 °F -23.5 °F -9.4 °F 71% 30.11 in 10.0 mi NNW 17.3 mph - N/A   Clear
11:34 PM -2.2 °F -22.9 °F -9.4 °F 71% 30.12 in 10.0 mi NNW 16.1 mph - N/A   Clear
11:55 PM -2.2 °F -22.2 °F -9.4 °F 71% 30.12 in 10.0 mi NNW 15.0 mph - N/A   Clear